• In Belarus
  • List of Countries
  • For 7 days
  • Water Temperature
  • Satellite Maps
  • Weather Map
  • Weather Widgets
  • user-avatar
    Login

    Hourly Weather Kaprun

    Today, 24 August, Thursday

    Time Temperature Precipitation Wind Pressure Humidity
    00:00 +7°C° 0 mm 1 mps 600 mmHg 79%
    01:00 +7°C° 0 mm 1 mps 600 mmHg 77%
    02:00 +7°C° 0 mm 1 mps 600 mmHg 75%
    03:00 +7°C° 0 mm 1 mps 600 mmHg 73%
    04:00 +7°C° 0 mm 1 mps 600 mmHg 71%
    05:00 +8°C° 0 mm 1 mps 601 mmHg 69%
    06:00 +9°C° 0 mm 1 mps 601 mmHg 67%
    07:00 +11°C° 0 mm 1 mps 602 mmHg 65%
    08:00 +14°C° 0 mm 1 mps 603 mmHg 57%
    09:00 +16°C° 0 mm 1 mps 604 mmHg 49%
    10:00 +18°C° 0 mm 0 mps 606 mmHg 41%
    11:00 +21°C° 0 mm 1 mps 606 mmHg 40%
    12:00 +21°C° 0 mm 1 mps 606 mmHg 38%
    13:00 +22°C° 0 mm 1 mps 606 mmHg 37%
    14:00 +21°C° 0 mm 1 mps 606 mmHg 42%
    15:00 +20°C° 0 mm 1 mps 605 mmHg 47%
    16:00 +20°C° 0 mm 1 mps 605 mmHg 52%
    17:00 +16°C° 1.1 mm 1 mps 604 mmHg 63%
    18:00 +14°C° 1.1 mm 1 mps 603 mmHg 75%
    19:00 +11°C° 1.1 mm 0 mps 602 mmHg 86%
    20:00 +11°C° 0.4 mm 1 mps 602 mmHg 86%
    21:00 +11°C° 0.4 mm 1 mps 602 mmHg 86%
    22:00 +10°C° 0.4 mm 1 mps 602 mmHg 85%
    23:00 +10°C° 0.2 mm 1 mps 602 mmHg 85%

    Tomorrow, 25 August, Friday

    Time Temperature Precipitation Wind Pressure Humidity
    00:00 +9°C° 0.2 mm 1 mps 602 mmHg 85%
    01:00 +9°C° 0.2 mm 1 mps 602 mmHg 84%
    02:00 +9°C° 0.1 mm 1 mps 602 mmHg 83%
    03:00 +9°C° 0.1 mm 1 mps 601 mmHg 82%
    04:00 +9°C° 0.1 mm 1 mps 601 mmHg 81%
    05:00 +10°C° 0 mm 1 mps 602 mmHg 78%
    06:00 +10°C° 0 mm 1 mps 602 mmHg 76%
    07:00 +11°C° 0 mm 1 mps 603 mmHg 73%
    08:00 +14°C° 0 mm 1 mps 604 mmHg 64%
    09:00 +18°C° 0 mm 1 mps 605 mmHg 55%
    10:00 +18°C° 0 mm 0 mps 606 mmHg 46%
    11:00 +21°C° 0 mm 1 mps 606 mmHg 44%
    12:00 +21°C° 0 mm 1 mps 606 mmHg 43%
    13:00 +22°C° 0 mm 1 mps 606 mmHg 42%
    14:00 +21°C° 0.3 mm 1 mps 605 mmHg 47%
    15:00 +20°C° 0.3 mm 1 mps 605 mmHg 52%
    16:00 +20°C° 0.3 mm 1 mps 605 mmHg 58%
    17:00 +16°C° 0.8 mm 1 mps 604 mmHg 68%
    18:00 +13°C° 0.8 mm 0 mps 603 mmHg 78%
    19:00 +11°C° 0.8 mm 0 mps 602 mmHg 88%
    20:00 +11°C° 0.3 mm 0 mps 602 mmHg 87%
    21:00 +11°C° 0.3 mm 1 mps 602 mmHg 87%
    22:00 +11°C° 0.3 mm 1 mps 602 mmHg 86%
    23:00 +11°C° 0 mm 1 mps 602 mmHg 86%

    Day after tomorrow, 26 August, Saturday

    Time Temperature Precipitation Wind Pressure Humidity
    00:00 +11°C° 0 mm 1 mps 602 mmHg 85%
    01:00 +10°C° 0 mm 1 mps 602 mmHg 84%
    02:00 +10°C° 0 mm 1 mps 601 mmHg 83%
    03:00 +10°C° 0 mm 1 mps 601 mmHg 81%
    04:00 +9°C° 0 mm 1 mps 601 mmHg 80%
    05:00 +11°C° 0 mm 1 mps 602 mmHg 77%
    06:00 +12°C° 0 mm 1 mps 602 mmHg 73%
    07:00 +13°C° 0 mm 1 mps 603 mmHg 70%
    08:00 +15°C° 0 mm 1 mps 604 mmHg 61%
    09:00 +19°C° 0 mm 1 mps 605 mmHg 53%
    10:00 +19°C° 0 mm 0 mps 606 mmHg 44%
    11:00 +22°C° 0 mm 1 mps 606 mmHg 43%
    12:00 +22°C° 0 mm 1 mps 606 mmHg 42%
    13:00 +23°C° 0 mm 1 mps 606 mmHg 41%
    14:00 +22°C° 0.4 mm 1 mps 606 mmHg 45%
    15:00 +22°C° 0.4 mm 1 mps 605 mmHg 49%
    16:00 +21°C° 0.4 mm 1 mps 605 mmHg 53%
    17:00 +19°C° 0.8 mm 1 mps 604 mmHg 63%
    18:00 +16°C° 0.8 mm 1 mps 603 mmHg 72%
    19:00 +13°C° 0.8 mm 0 mps 602 mmHg 82%
    20:00 +13°C° 0.1 mm 1 mps 602 mmHg 81%
    21:00 +13°C° 0.1 mm 1 mps 602 mmHg 81%
    22:00 +12°C° 0.1 mm 1 mps 602 mmHg 80%
    23:00 +12°C° 0 mm 1 mps 602 mmHg 80%

    27 August, Sunday

    Time Temperature Precipitation Wind Pressure Humidity
    00:00 +11°C° 0 mm 1 mps 602 mmHg 79%
    01:00 +11°C° 0 mm 1 mps 601 mmHg 79%
    02:00 +10°C° 0.2 mm 1 mps 601 mmHg 79%
    03:00 +10°C° 0.2 mm 1 mps 601 mmHg 80%
    04:00 +9°C° 0.2 mm 1 mps 600 mmHg 81%
    05:00 +11°C° 0.2 mm 1 mps 601 mmHg 78%
    06:00 +12°C° 0.2 mm 1 mps 602 mmHg 76%
    07:00 +13°C° 0.2 mm 1 mps 602 mmHg 73%
    08:00 +16°C° 0 mm 1 mps 604 mmHg 63%
    09:00 +19°C° 0 mm 1 mps 605 mmHg 53%
    10:00 +20°C° 0 mm 0 mps 606 mmHg 43%
    11:00 +21°C° 0 mm 0 mps 606 mmHg 41%
    12:00 +23°C° 0 mm 1 mps 606 mmHg 40%
    13:00 +24°C° 0 mm 1 mps 606 mmHg 38%
    14:00 +23°C° 0.1 mm 1 mps 605 mmHg 42%
    15:00 +22°C° 0.1 mm 1 mps 605 mmHg 46%
    16:00 +21°C° 0.1 mm 1 mps 604 mmHg 50%
    17:00 +19°C° 2 mm 1 mps 603 mmHg 62%
    18:00 +16°C° 2 mm 1 mps 602 mmHg 73%
    19:00 +13°C° 2 mm 0 mps 602 mmHg 85%
    20:00 +13°C° 1.8 mm 1 mps 602 mmHg 86%
    21:00 +13°C° 1.8 mm 1 mps 602 mmHg 87%
    22:00 +12°C° 1.8 mm 1 mps 602 mmHg 89%
    23:00 +12°C° 0.7 mm 1 mps 602 mmHg 89%

    28 August, Monday

    Time Temperature Precipitation Wind Pressure Humidity
    00:00 +12°C° 0.7 mm 1 mps 602 mmHg 90%
    01:00 +11°C° 0.7 mm 1 mps 601 mmHg 91%
    02:00 +11°C° 0.1 mm 1 mps 601 mmHg 90%
    03:00 +9°C° 0.1 mm 2 mps 601 mmHg 89%
    04:00 +9°C° 0.1 mm 2 mps 601 mmHg 88%
    05:00 +10°C° 0 mm 2 mps 601 mmHg 87%
    06:00 +10°C° 0 mm 2 mps 602 mmHg 85%
    07:00 +12°C° 0 mm 2 mps 602 mmHg 83%
    08:00 +14°C° 0 mm 2 mps 603 mmHg 73%
    09:00 +16°C° 0 mm 1 mps 604 mmHg 63%
    10:00 +20°C° 0 mm 1 mps 605 mmHg 53%
    11:00 +20°C° 0 mm 1 mps 605 mmHg 50%
    12:00 +20°C° 0 mm 2 mps 606 mmHg 47%
    13:00 +21°C° 0 mm 2 mps 606 mmHg 43%
    14:00 +20°C° 0 mm 2 mps 605 mmHg 47%
    15:00 +20°C° 0 mm 2 mps 605 mmHg 50%
    16:00 +19°C° 0 mm 2 mps 605 mmHg 54%
    17:00 +17°C° 0.1 mm 2 mps 604 mmHg 65%
    18:00 +15°C° 0.1 mm 1 mps 603 mmHg 76%
    19:00 +13°C° 0.1 mm 1 mps 602 mmHg 87%
    20:00 +12°C° 0 mm 1 mps 602 mmHg 89%
    21:00 +11°C° 0 mm 1 mps 602 mmHg 91%
    22:00 +11°C° 0 mm 1 mps 602 mmHg 93%
    23:00 +10°C° 0 mm 1 mps 602 mmHg 93%

    29 August, Tuesday

    Time Temperature Precipitation Wind Pressure Humidity
    00:00 +10°C° 0 mm 1 mps 602 mmHg 92%
    01:00 +10°C° 0 mm 1 mps 602 mmHg 92%
    02:00 +9°C° 0 mm 1 mps 602 mmHg 92%
    03:00 +9°C° 0 mm 1 mps 602 mmHg 91%
    04:00 +9°C° 0 mm 1 mps 601 mmHg 91%
    05:00 +10°C° 0 mm 1 mps 602 mmHg 88%
    06:00 +11°C° 0 mm 1 mps 603 mmHg 85%
    07:00 +12°C° 0 mm 1 mps 603 mmHg 83%
    08:00 +15°C° 0 mm 1 mps 604 mmHg 73%
    09:00 +18°C° 0 mm 1 mps 605 mmHg 62%
    10:00 +21°C° 0 mm 1 mps 606 mmHg 52%
    11:00 +21°C° 0 mm 1 mps 606 mmHg 49%
    12:00 +22°C° 0 mm 1 mps 606 mmHg 45%
    13:00 +23°C° 0 mm 1 mps 606 mmHg 42%
    14:00 +22°C° 0 mm 1 mps 606 mmHg 46%
    15:00 +22°C° 0 mm 1 mps 605 mmHg 49%
    16:00 +21°C° 0 mm 1 mps 605 mmHg 53%
    17:00 +19°C° 0 mm 1 mps 604 mmHg 65%
    18:00 +16°C° 0 mm 1 mps 603 mmHg 76%
    19:00 +13°C° 0 mm 1 mps 602 mmHg 88%
    20:00 +13°C° 0 mm 1 mps 602 mmHg 89%
    21:00 +12°C° 0 mm 1 mps 602 mmHg 89%
    22:00 +12°C° 0 mm 1 mps 602 mmHg 90%
    23:00 +12°C° 0 mm 2 mps 602 mmHg 90%
    Show more